Theta_e
321 319 319 319 318 320 319 319 320 320 321 321 319 320 320 323 323 324 327 328 328 327 326 325 325 324 324 322 320 320 320 320 320 320 320 320 320 320 320 319 318 318 315 310
316 319 319 319 318 319 319 320 320 320 318 320 319 320 318 320 322 322 326 328 328 326 326 325 325 324 323 320 320 320 320 320 320 320 320 320 320 320 320 318 318 318 317 314
317 318 320 319 319 319 320 319 320 320 317 317 317 316 316 322 323 321 325 328 326 326 326 325 322 321 320 320 320 319 320 321 321 320 320 320 320 320 319 318 317 316 315 313
316 318 320 319 321 318 318 318 318 318 317 319 315 315 315 324 324 321 325 324 324 324 323 322 321 320 320 321 319 319 320 321 320 320 320 320 319 319 318 318 317 316 315 313
319 319 319 319 320 317 318 316 316 317 314 316 317 315 315 325 326 324 323 325 325 323 321 321 320 320 320 319 319 319 320 321 321 321 320 319 319 318 318 317 314 311 310 310
317 318 319 318 317 317 316 318 317 315 314 319 318 319 318 325 324 324 324 324 325 322 321 320 320 320 318 319 320 320 321 321 321 320 319 318 317 315 312 311 311 311 310 310
320 319 317 317 317 316 315 316 317 318 320 321 318 322 319 323 324 323 323 325 323 322 322 320 319 318 319 320 319 319 321 320 319 318 317 314 311 311 311 311 310 309 309 310
318 319 317 316 315 316 315 314 317 317 316 316 319 328 325 323 325 325 324 322 322 322 321 319 318 319 318 318 319 320 320 319 318 315 312 311 311 311 310 309 307 306 306 307
321 321 316 316 316 315 320 320 316 318 320 320 319 326 324 324 322 322 322 322 322 322 320 319 318 318 319 320 320 319 318 316 314 312 311 311 311 309 308 306 305 304 304 304
320 322 320 316 315 314 320 320 322 320 323 325 321 324 324 324 323 320 321 323 322 320 319 318 318 319 320 319 319 317 315 314 312 311 311 310 309 307 306 303 302 302 302 302
317 317 319 317 316 314 314 315 319 320 319 319 318 320 318 322 321 320 321 323 321 318 318 318 319 320 319 318 316 316 315 312 311 310 310 308 307 304 301 300 301 302 303 303
316 314 318 317 317 316 315 314 318 320 321 317 317 319 319 319 320 321 322 321 320 318 319 319 320 319 317 316 316 315 313 311 310 309 307 305 304 302 302 302 303 302 302 303
317 314 315 314 311 317 318 316 316 316 316 321 320 322 319 320 320 321 321 320 319 319 320 320 319 317 316 316 315 313 310 309 308 306 304 303 302 302 302 302 303 303 303 304
318 313 315 318 314 316 318 319 318 316 317 318 319 320 320 321 319 318 318 319 319 320 319 319 317 316 316 315 311 309 308 307 305 302 301 301 301 301 302 302 302 303 304 305
314 318 318 317 318 320 320 320 320 317 316 317 317 318 318 319 317 317 318 318 319 318 319 318 316 316 314 311 309 308 306 303 300 299 299 300 301 301 301 302 303 304 304 306
312 316 318 319 320 321 322 321 321 320 319 316 317 322 318 317 318 317 318 319 318 318 318 317 316 313 311 309 307 305 301 299 298 298 299 300 300 301 301 302 303 305 305 306
316 316 317 320 322 320 316 317 320 319 321 320 319 319 316 315 316 316 317 318 317 318 317 315 312 310 308 306 304 300 297 297 299 299 299 300 300 301 301 302 303 304 304 305
316 317 319 322 320 322 318 320 322 323 322 317 317 316 316 315 317 318 318 317 318 316 315 312 310 308 307 304 301 299 297 298 299 298 299 300 300 300 301 301 302 303 303 304
314 315 319 322 322 320 319 321 323 322 322 319 316 316 316 316 317 317 318 317 316 314 312 310 308 306 305 302 300 298 298 298 298 298 298 299 299 300 300 301 301 302 302 303
317 314 316 316 319 321 318 323 322 320 321 320 316 316 315 315 313 311 316 316 314 312 310 308 307 305 303 301 299 298 298 297 298 298 298 299 299 300 300 301 302 301 302 301
320 320 320 318 319 317 317 323 322 323 320 320 315 315 314 312 314 316 316 314 312 310 308 307 306 304 301 299 298 297 297 297 297 298 299 299 300 300 300 301 302 302 302 302
323 323 321 318 317 319 320 321 322 320 320 317 315 315 314 315 316 316 314 313 311 309 308 308 304 302 300 298 298 296 296 297 297 298 299 299 299 300 300 300 300 301 301 301
321 320 321 317 317 316 321 318 319 318 316 317 315 314 315 315 316 315 314 312 310 309 308 306 303 301 299 298 298 296 297 297 298 298 299 299 299 299 300 299 299 300 301 301
319 319 319 319 320 319 319 320 318 317 318 315 314 315 315 315 315 314 313 311 310 309 307 304 302 300 299 297 297 297 298 298 298 299 298 298 299 299 300 300 300 300 300 300
319 317 317 317 320 319 319 320 318 317 314 314 314 315 315 314 314 314 313 312 309 308 306 303 299 298 297 297 298 298 298 298 298 298 299 299 299 299 298 297 297 298 299 299
317 318 316 317 319 318 319 318 318 315 314 314 314 315 314 314 314 313 312 310 309 308 305 299 296 298 297 296 296 296 295 296 296 296 296 297 297 297 297 297 298 298 298 298
Wind_Speed
2 3 3 4 6 4 3 2 3 4 2 4 5 4 8 18 16 18 24 23 20 14 6 5 3 3 5 5 6 7 13 13 14 14 17 21 23 26 27 29 30 34 34 30
5 3 8 4 4 2 4 2 4 2 6 3 3 4 3 1 8 16 27 25 20 14 13 8 6 7 5 6 6 9 13 14 13 15 18 20 21 24 25 27 32 36 39 40
5 5 4 5 3 5 4 5 2 0 5 4 4 7 4 4 4 11 20 22 17 15 13 7 5 2 6 7 7 12 12 12 13 15 18 19 22 25 28 30 33 35 39 41
2 4 2 1 2 5 4 3 3 3 4 3 4 5 4 5 4 3 21 16 9 7 6 3 3 6 8 7 11 11 12 11 13 17 19 21 25 28 31 34 38 41 42 45
5 3 1 2 4 4 5 2 2 2 4 2 2 3 5 3 3 1 2 7 5 5 6 2 5 6 5 10 11 12 11 11 14 15 19 24 28 32 36 40 45 50 52 51
6 3 2 6 2 2 4 4 7 5 3 3 3 3 4 4 6 3 4 6 3 3 2 5 5 5 10 12 11 10 10 11 13 17 23 28 35 41 45 48 51 54 56 56
3 2 2 5 3 4 6 6 3 4 4 5 2 2 6 5 5 6 5 3 3 1 4 5 6 9 8 7 10 11 9 13 18 24 31 37 41 44 48 53 56 56 56 54
4 6 4 3 5 7 4 7 5 5 2 5 5 3 5 3 7 6 9 7 2 1 2 4 5 3 4 8 9 10 15 20 27 33 40 43 46 51 54 55 51 49 46 42
5 4 0 4 4 7 3 2 4 7 3 2 3 4 6 1 3 8 10 6 4 1 5 4 3 4 6 6 11 15 21 29 35 41 45 49 52 52 51 46 43 35 32 34
7 3 2 2 4 5 4 7 3 3 3 4 4 3 5 7 9 9 8 10 2 3 6 5 2 3 5 10 16 22 29 35 42 47 50 51 51 47 43 39 33 35 34 34
5 4 3 3 3 7 2 1 5 4 5 5 2 5 7 10 11 10 16 10 2 1 5 1 1 4 10 16 22 27 35 44 48 51 51 49 45 41 37 35 33 33 33 32
4 5 4 7 1 0 3 7 6 5 5 3 4 6 2 9 10 10 8 2 3 6 1 1 4 9 15 21 27 35 42 46 49 49 47 42 38 36 34 32 32 31 32 30
7 1 3 6 6 4 2 3 4 4 3 6 5 6 3 1 5 6 5 7 7 3 2 4 7 13 19 27 34 39 44 46 46 44 39 37 34 32 32 32 32 31 30 28
8 4 7 7 5 3 2 1 1 5 3 3 6 6 4 2 5 8 11 9 3 3 3 4 11 17 25 30 37 42 44 43 41 37 34 32 30 30 30 32 31 29 27 25
5 5 3 3 4 3 2 3 2 6 5 5 7 7 5 7 6 9 10 4 4 1 2 10 17 23 28 35 40 42 42 39 34 32 30 28 28 29 29 30 30 28 26 23
3 3 3 3 4 3 3 7 8 4 2 5 2 2 2 8 13 10 5 2 2 6 9 14 19 25 32 37 38 38 37 32 30 27 27 27 28 28 28 29 27 26 24 23
5 6 4 4 4 3 4 5 4 2 2 4 5 5 6 5 9 6 3 1 1 2 8 14 21 28 32 34 35 34 31 29 26 26 26 27 26 27 28 26 25 25 25 23
7 6 3 4 4 1 5 2 8 9 5 6 8 5 10 15 11 7 3 3 3 4 10 17 23 27 30 32 30 28 25 25 26 26 24 24 24 26 25 25 24 22 23 24
3 5 3 5 4 2 4 4 6 5 2 4 6 5 9 11 11 6 4 3 3 6 12 18 23 27 30 29 27 23 23 24 24 24 23 23 22 23 23 24 23 23 24 25
5 7 5 2 4 5 4 2 10 11 1 5 7 7 8 8 2 3 5 2 3 8 14 20 24 28 28 26 23 21 22 24 24 23 21 20 20 20 20 21 22 24 26 28
3 3 5 3 1 5 6 7 9 4 6 14 12 10 8 3 4 9 10 3 5 12 17 21 25 26 24 22 20 22 22 22 21 19 18 18 18 18 19 20 24 28 32 35
3 3 2 3 3 6 12 3 7 6 15 20 13 9 10 10 12 14 8 2 7 13 18 22 23 22 20 20 22 23 22 21 18 17 17 19 20 20 23 27 30 33 35 36
3 6 3 7 6 3 9 5 8 26 29 15 13 8 7 9 13 10 5 3 8 14 18 20 20 19 18 20 23 24 22 19 18 18 21 26 26 26 27 30 32 33 33 33
5 4 4 2 2 6 8 12 24 20 17 16 12 8 6 10 12 8 4 4 8 13 16 18 18 17 17 18 19 18 19 19 20 24 27 29 29 27 28 31 31 30 33 30
5 2 1 2 4 15 10 23 20 19 18 15 13 11 11 12 10 6 4 3 8 12 14 17 17 17 16 17 19 22 24 28 29 28 29 28 28 26 24 23 26 27 28 28
6 5 3 3 16 7 18 21 22 22 19 18 17 17 12 6 5 7 4 4 8 10 13 17 19 24 29 31 32 29 27 27 26 25 24 23 23 24 22 22 25 26 24 23
Wind_Direction
327 69 229 232 197 173 170 222 272 293 63 113 177 200 227 204 204 192 189 185 183 180 179 175 187 243 264 309 306 316 340 328 317 316 321 327 332 334 337 338 337 335 335 333
14 240 226 218 186 167 59 26 315 316 7 88 150 258 340 267 242 206 188 188 185 192 207 210 229 250 270 275 295 324 328 314 303 302 312 319 323 327 327 326 327 328 329 329
166 256 144 178 164 98 33 120 9 64 345 32 61 334 359 320 324 182 191 180 186 211 215 218 229 253 271 278 303 316 315 303 294 300 312 315 318 318 318 319 320 321 321 320
221 305 169 161 141 124 162 210 138 74 52 241 48 265 303 328 353 96 156 171 184 177 181 204 220 280 280 289 308 312 304 283 288 308 309 309 311 313 315 315 314 312 311 310
261 322 158 115 188 123 203 171 37 115 126 93 275 81 266 348 17 316 175 162 115 125 128 214 290 296 291 294 295 308 302 280 300 298 304 310 311 312 310 308 306 306 308 308
211 264 212 192 153 106 104 77 44 48 64 11 258 124 284 193 205 228 231 191 109 127 231 253 252 271 300 303 314 332 317 292 296 310 315 313 312 311 310 311 311 311 310 309
339 234 248 149 139 29 72 58 351 359 9 222 274 103 241 276 218 197 187 179 160 265 273 279 231 295 295 317 333 325 301 308 318 317 314 313 314 313 313 314 313 311 309 306
160 322 183 189 167 178 163 146 150 196 211 270 315 260 259 297 190 202 174 175 207 259 281 204 289 286 322 323 314 311 316 321 321 319 319 319 317 316 315 315 312 308 308 306
154 248 282 217 149 129 183 144 172 105 15 45 269 301 327 279 261 202 203 207 210 54 184 235 231 304 311 315 324 323 324 324 323 324 322 320 320 318 316 315 312 314 305 296
208 125 237 185 103 44 143 155 76 17 150 242 288 268 228 208 230 236 234 221 271 163 180 178 287 319 337 331 326 328 327 326 326 325 324 321 320 320 320 321 314 315 313 308
131 116 254 116 205 180 57 134 56 116 138 169 210 258 214 204 215 218 228 223 189 146 164 244 353 334 326 324 326 328 329 329 326 325 323 322 326 329 326 325 321 316 312 310
166 134 149 207 56 243 185 201 145 132 223 219 155 273 276 227 220 232 213 153 122 146 207 352 317 321 325 329 333 332 327 326 326 325 327 332 332 332 330 330 329 326 321 315
184 0 77 352 358 7 132 123 126 115 78 197 143 255 340 127 146 168 143 119 126 159 207 275 315 328 334 335 330 327 327 328 326 330 334 335 335 337 338 337 336 333 327 322
111 121 153 183 194 157 178 225 130 124 122 207 222 265 264 161 134 115 121 117 119 192 263 320 334 337 336 329 329 329 330 330 334 338 336 338 341 344 346 346 342 340 336 331
111 135 142 149 136 144 172 271 244 179 206 175 258 203 256 190 155 132 122 132 175 205 5 344 340 335 331 331 331 331 333 338 340 338 342 344 347 352 351 348 350 350 349 346
5 156 112 156 181 152 214 266 273 258 177 236 161 65 92 95 110 108 125 157 21 16 350 340 336 335 334 334 333 337 342 344 344 348 349 352 355 358 354 354 355 358 358 1
121 131 115 199 136 81 305 244 217 51 338 223 164 185 122 85 86 75 44 348 343 21 347 339 338 337 335 336 341 345 347 349 350 352 355 355 -0 1 359 1 0 4 8 11
134 114 121 148 93 166 243 342 91 99 12 22 86 109 139 120 100 105 135 208 108 9 353 340 337 339 341 346 348 349 352 351 354 355 357 2 5 3 5 9 12 14 23 26
117 121 105 140 166 307 287 157 145 143 304 331 102 89 153 138 109 63 106 97 63 1 348 342 344 347 351 351 351 352 354 0 359 1 2 6 7 8 14 18 23 33 41 42
77 83 110 160 150 186 234 219 128 109 158 211 138 139 122 146 102 251 169 117 34 356 352 354 352 355 356 353 355 356 1 359 2 4 7 12 15 18 28 33 41 50 57 59
14 47 144 125 113 294 244 201 161 130 228 176 166 142 125 135 198 163 164 132 13 3 360 357 358 2 1 5 6 9 8 8 7 9 17 22 28 33 41 50 61 66 68 68
244 178 214 120 147 254 188 169 167 177 139 151 146 136 121 138 148 143 144 81 11 4 2 1 5 6 8 15 16 15 9 8 15 23 36 44 47 57 69 75 73 71 68 66
215 216 198 175 205 240 157 143 153 154 151 157 147 142 133 137 149 154 141 52 15 7 6 7 10 14 18 25 20 14 18 25 36 52 63 71 72 77 77 74 72 67 64 65
219 191 196 144 188 140 139 140 152 154 149 149 150 151 153 151 155 158 146 55 14 13 13 16 20 23 22 25 25 34 41 50 63 69 79 81 77 76 78 76 70 67 61 60
166 82 154 136 70 112 144 148 152 152 149 147 151 157 153 148 153 158 142 60 28 23 24 32 41 42 41 51 57 60 67 76 73 72 74 75 72 70 60 57 47 57 63 62
171 172 141 227 176 149 177 172 169 160 155 158 154 145 142 125 145 162 139 73 36 31 40 69 72 73 81 82 80 78 71 69 65 61 56 51 49 44 61 75 77 72 74 68